Theta_e
306 307 308 308 309 309 310 310 311 310 312 307 306 310 301 300 298 311 313 314 312 303 296 298 296 294 294 298 297 298 297 295 296 295 297 294 297 294 293 295 294 295 294 293 294 294 290 292 290 292 292 292 296 296 300 300 298 299 293 297 294 296 289 288 285 287 288 289 290 289 290 291 289 289 287 288 289 290 289 287 285 286 283 282 277 278 284
306 306 306 307 308 309 309 310 310 310 310 307 306 303 301 302 301 304 312 314 311 300 290 290 291 293 296 295 294 298 298 296 295 294 296 294 294 293 293 295 296 294 296 295 293 296 289 294 293 291 292 290 298 298 299 300 297 297 293 294 297 291 288 289 284 282 283 284 285 287 287 289 285 286 291 291 291 291 290 287 286 285 286 284 282 280 286
305 306 306 306 307 308 308 309 310 310 310 309 305 299 303 302 302 303 306 311 308 296 298 294 291 291 292 293 291 293 294 298 298 296 295 297 295 294 293 295 296 295 298 296 297 298 296 290 295 294 292 294 295 298 299 301 298 299 298 299 301 294 289 289 284 282 280 279 280 281 282 286 287 286 288 291 291 290 288 286 287 284 287 286 285 285 288
304 304 305 306 306 308 308 308 309 309 309 310 305 301 299 296 289 299 301 305 303 303 304 299 294 291 291 290 292 294 291 296 299 299 296 298 297 296 296 297 296 294 295 293 294 294 298 294 289 293 290 293 292 294 299 299 299 298 298 296 299 288 289 292 290 288 286 288 286 288 289 285 284 286 288 290 291 292 291 289 286 284 285 284 288 289 289
304 304 305 305 305 307 308 308 308 309 309 309 304 301 300 300 293 294 290 300 300 298 300 298 296 292 294 288 292 290 292 294 296 300 295 299 297 296 295 294 292 292 292 292 293 295 293 295 293 292 293 290 291 294 295 299 298 297 296 297 292 286 288 291 292 291 292 293 291 289 291 288 289 287 286 289 289 289 288 287 286 289 284 283 290 290 288
305 304 304 305 305 307 308 308 308 308 309 308 305 295 299 291 294 299 299 294 289 293 295 298 296 296 295 292 295 291 291 292 291 298 299 300 301 295 295 295 295 294 292 292 289 292 292 292 292 293 291 290 292 293 295 296 294 296 295 297 294 289 288 290 291 291 293 294 294 292 291 291 290 289 288 287 288 288 287 288 290 289 287 285 290 290 289
305 303 305 305 304 306 307 308 308 308 308 308 302 293 298 298 295 295 299 294 293 293 292 296 297 295 295 293 294 292 291 291 294 295 295 297 297 299 291 292 294 295 295 293 290 292 288 289 293 290 288 290 288 288 291 292 289 289 290 293 289 290 288 290 291 290 291 293 293 292 290 290 289 288 289 289 288 288 288 289 291 290 289 292 292 290 290
304 304 303 305 304 305 307 308 307 308 308 306 299 296 294 293 294 289 295 295 294 292 292 293 294 292 296 291 293 293 292 291 294 296 296 291 294 300 295 296 295 295 295 294 291 293 294 294 290 293 293 289 289 290 290 287 289 289 290 292 291 291 289 291 287 287 288 291 292 290 291 290 288 289 289 289 289 289 289 289 290 290 290 292 291 290 289
304 304 303 304 304 304 306 307 307 307 308 299 297 296 298 298 295 295 292 289 292 293 292 292 292 291 293 292 294 294 294 293 295 295 299 296 294 297 295 297 297 297 296 295 295 297 297 297 296 294 296 292 294 294 291 293 289 289 288 289 288 289 286 285 287 286 287 289 289 287 286 287 287 288 290 289 288 286 286 287 291 289 288 290 289 288 289
304 304 303 303 304 304 305 306 307 307 307 299 298 294 298 296 297 296 295 290 294 291 289 293 292 287 292 293 293 293 294 297 297 292 297 299 300 299 299 298 297 295 295 295 297 300 300 299 299 298 299 300 297 298 295 295 292 288 289 287 288 288 288 287 286 285 286 290 287 287 286 286 285 286 290 292 291 290 290 290 291 291 292 288 287 288 294
303 304 303 303 304 304 303 306 306 307 305 298 296 295 295 295 295 294 295 288 288 290 291 289 289 290 293 293 293 295 294 295 296 291 290 297 298 301 300 299 296 295 295 299 301 298 297 296 296 297 298 298 297 296 295 295 295 293 290 287 286 287 287 288 287 285 286 288 285 286 284 279 281 292 295 295 292 292 289 289 290 291 292 291 294 294 295
302 303 303 303 303 303 303 305 306 306 306 302 301 298 298 298 297 295 291 286 288 289 290 288 289 288 288 292 293 292 292 293 294 296 292 294 296 299 299 298 298 292 297 297 297 298 297 298 297 296 293 292 294 295 295 294 294 294 295 292 287 288 288 288 287 283 285 285 285 283 278 281 290 286 288 292 296 295 293 293 294 293 293 293 292 292 293
302 302 302 303 303 303 303 303 306 306 307 303 301 296 299 300 297 294 292 287 285 286 287 287 290 290 290 291 290 290 292 290 289 291 293 295 291 293 298 298 296 297 298 299 299 299 295 289 287 288 287 288 289 291 292 294 293 294 294 295 291 288 288 287 285 286 283 281 284 277 280 287 287 286 284 284 289 290 291 290 293 295 294 294 292 294 295
300 302 303 302 302 303 302 303 305 306 306 305 300 299 299 299 295 293 291 286 286 287 288 286 287 287 288 289 289 288 289 289 288 290 289 289 290 293 292 291 293 292 296 300 298 295 289 288 289 288 287 289 287 288 289 290 291 292 292 293 295 292 290 289 285 288 281 284 284 284 288 287 289 287 283 286 287 286 288 286 289 294 295 294 294 294 295
300 301 302 302 302 302 302 302 303 305 305 305 302 300 299 299 298 295 294 291 285 286 288 285 286 288 288 287 288 286 286 286 287 287 287 287 286 286 288 289 289 291 292 297 290 292 289 286 284 285 284 284 281 284 287 287 285 284 287 290 292 293 289 288 286 284 287 284 282 282 282 280 286 288 284 290 289 291 292 290 288 291 291 294 294 294 294
298 299 301 301 301 301 302 302 302 304 305 304 302 300 300 300 300 298 295 289 286 283 286 291 291 289 287 286 289 287 285 285 285 286 285 286 286 286 287 288 288 290 290 293 291 290 287 286 284 285 281 283 286 283 279 284 283 285 284 286 287 288 289 289 287 285 284 283 281 281 279 283 286 286 283 285 282 288 289 288 286 287 283 287 292 293 293
299 299 299 300 300 300 301 301 301 303 305 303 299 299 298 301 299 296 293 290 287 284 290 291 290 289 286 285 287 286 286 284 286 283 282 284 285 285 287 287 287 290 290 292 288 288 285 285 286 286 285 285 284 283 283 281 281 280 283 285 286 286 287 287 284 284 285 283 282 280 285 285 285 283 282 283 280 289 290 280 280 287 284 283 285 289 288
298 298 298 299 299 300 300 301 301 301 302 305 301 298 297 301 301 298 294 289 285 286 288 292 289 286 287 287 286 287 287 285 284 285 284 284 283 284 285 287 286 289 290 289 288 288 285 286 284 284 284 285 286 287 280 282 279 278 277 282 281 283 283 285 282 284 285 285 283 284 285 286 284 281 281 282 282 290 284 280 284 283 281 282 284 285 287
298 298 298 298 299 299 300 300 300 300 301 303 301 299 298 300 300 299 295 288 286 284 291 293 293 291 289 290 286 287 287 289 287 285 282 284 283 285 286 286 288 286 288 285 288 287 286 285 286 285 285 283 284 283 286 282 280 280 282 281 280 283 284 282 285 284 283 284 282 283 285 286 284 280 281 283 289 283 282 285 281 281 282 283 285 285 284
298 298 298 298 298 299 299 300 300 300 301 301 301 295 298 300 300 299 294 287 287 285 289 290 291 291 290 288 286 285 285 286 286 286 285 282 286 287 286 283 286 286 284 286 283 287 286 284 285 286 282 284 284 286 281 281 282 280 281 284 283 283 282 280 282 283 282 282 282 280 277 285 284 285 285 286 285 286 284 282 281 281 280 282 284 285 284
297 297 297 298 298 298 299 299 300 299 300 301 301 296 294 299 300 300 299 295 288 285 287 293 291 292 291 289 291 292 290 287 287 286 286 285 288 288 280 281 285 285 283 286 282 284 284 284 283 283 285 285 285 285 280 282 280 283 283 283 281 287 282 281 283 286 280 281 279 280 284 283 283 285 285 284 286 287 283 284 284 282 282 283 284 284 285
297 297 297 297 297 298 298 298 299 299 300 300 301 296 293 297 299 300 299 296 289 285 286 289 290 291 292 291 292 292 293 292 293 293 288 285 286 285 285 286 285 285 286 287 283 283 283 283 284 280 280 280 284 280 283 280 278 279 279 281 282 287 283 284 281 284 283 282 283 283 283 283 282 284 283 285 285 284 285 285 285 283 284 282 284 284 284
297 297 297 297 297 297 298 298 299 299 299 300 299 295 293 294 293 299 297 289 289 290 291 288 290 291 293 292 290 289 288 289 292 291 293 289 285 285 283 285 283 285 284 286 285 285 285 283 279 285 281 282 282 281 280 281 279 280 279 284 283 282 283 283 284 282 283 283 283 284 283 284 284 284 284 284 284 284 284 284 284 282 283 282 282 282 283
297 297 297 297 297 298 298 298 298 299 299 300 298 294 293 294 295 295 293 291 286 284 287 289 287 285 287 289 289 289 290 291 293 293 293 294 286 284 285 285 287 284 282 284 286 286 285 284 282 284 279 284 284 279 280 278 278 281 280 281 280 281 283 284 282 284 285 281 283 283 285 284 284 285 284 283 283 283 283 283 283 282 281 280 280 283 284
296 296 297 297 297 297 297 297 298 298 299 299 299 298 295 293 295 295 289 284 283 284 281 283 285 290 289 291 291 289 289 291 293 292 292 291 292 288 285 287 288 286 285 286 285 286 286 282 282 280 279 285 286 279 285 281 279 284 278 280 281 281 284 283 282 283 283 281 281 281 280 282 283 283 283 284 284 282 280 280 280 280 280 281 281 282 281
296 296 296 296 297 297 297 297 297 298 298 299 298 293 292 292 295 296 293 291 288 285 282 280 283 288 287 288 287 289 290 290 289 289 288 289 290 291 287 285 284 286 286 285 284 285 283 281 280 279 281 282 287 281 280 283 282 283 283 281 284 284 287 280 283 279 278 279 279 279 281 283 284 283 283 284 283 281 280 279 279 280 280 280 279 279 280
295 296 296 296 296 296 297 297 297 297 298 298 297 295 294 295 296 294 289 288 285 282 283 281 284 283 284 286 288 287 289 289 289 288 288 289 289 289 289 286 285 285 285 283 282 282 280 279 280 279 282 280 284 280 282 280 282 280 279 282 283 284 281 282 282 277 276 278 279 281 281 279 283 283 284 284 283 280 279 279 279 279 279 279 279 279 278
295 295 296 296 296 296 297 297 297 298 298 298 296 295 294 294 294 295 294 293 288 282 284 284 281 281 285 282 287 287 288 288 288 287 286 287 288 289 288 286 285 284 282 284 281 280 279 281 278 281 280 279 280 277 281 280 280 277 278 280 282 282 283 283 281 281 280 282 282 284 284 284 286 286 285 285 283 280 280 279 279 278 278 279 279 279 279
295 295 295 295 296 296 296 297 297 297 298 297 291 291 292 295 296 296 295 295 291 285 284 284 285 283 279 283 288 285 287 287 287 287 286 285 286 287 287 287 286 285 284 283 283 282 281 281 284 280 278 283 281 276 279 274 275 277 280 282 282 283 284 285 285 281 279 283 283 284 281 282 283 285 286 285 283 281 280 279 279 279 278 278 278 279 279
295 295 295 295 296 296 296 297 297 297 297 291 287 284 284 286 295 295 297 295 292 288 283 281 277 281 285 283 282 285 285 286 286 286 285 284 284 285 286 286 284 285 282 281 282 277 280 279 280 280 280 283 281 279 276 274 274 277 282 283 284 283 282 286 284 284 281 281 284 284 283 283 279 282 285 284 281 282 280 279 279 279 278 278 278 277 278
295 295 295 295 296 296 296 297 297 297 297 287 286 283 280 279 287 296 297 295 293 288 284 285 280 285 280 285 284 283 285 285 284 284 284 284 283 284 282 283 282 283 281 280 279 279 280 275 278 279 281 283 283 277 273 273 271 273 279 282 283 283 281 283 283 283 281 281 283 280 278 277 278 280 280 281 279 280 278 278 278 280 279 278 278 278 277
294 294 295 295 295 295 296 296 297 296 292 287 286 284 284 286 292 296 298 296 293 287 284 280 281 277 277 282 282 285 285 285 285 283 283 283 281 282 281 282 283 283 285 277 278 276 274 278 280 279 279 284 283 272 274 271 272 273 278 280 281 282 282 279 280 279 281 282 280 279 278 278 279 282 281 278 279 279 280 280 279 279 279 278 276 276 276
294 294 294 295 295 295 295 295 296 294 290 292 296 297 296 294 296 297 298 294 290 285 286 283 277 279 279 277 283 283 284 284 282 283 280 284 281 281 278 282 279 279 287 283 276 274 276 277 278 278 281 281 279 276 271 273 277 278 279 281 279 278 278 278 278 279 280 281 283 280 277 279 278 277 276 278 279 278 278 278 276 276 277 277 277 277 276
293 293 295 294 295 295 295 295 294 294 295 288 283 286 291 296 296 296 294 290 286 286 285 282 279 275 275 284 276 282 286 281 280 283 278 283 281 282 278 280 278 279 275 278 278 276 274 277 271 273 277 272 276 273 272 276 278 279 279 279 278 277 276 277 277 279 279 278 276 278 279 277 276 276 277 278 276 275 276 275 276 276 273 275 274 275 274
292 294 294 295 295 295 295 294 290 288 283 284 286 288 291 296 296 297 293 288 283 280 282 281 282 276 274 274 275 280 284 283 279 282 279 281 283 279 278 276 276 276 277 281 274 273 274 274 278 274 270 272 273 270 276 275 278 279 278 278 276 277 276 277 277 277 277 276 276 275 276 277 277 276 276 275 276 275 276 274 274 275 275 273 275 273 272
292 293 293 293 294 294 288 288 284 284 282 284 284 293 296 297 297 294 292 286 285 282 280 280 281 276 277 272 273 279 285 281 283 281 281 282 279 281 278 276 274 276 278 274 269 272 270 278 277 270 271 270 273 276 275 277 277 277 278 278 277 278 279 280 278 275 274 274 274 275 275 276 278 276 275 275 275 274 275 275 273 273 275 274 274 274 272
292 292 293 292 287 285 283 283 286 285 283 288 291 296 297 294 288 290 287 286 285 285 281 280 278 278 278 275 279 280 283 275 282 279 280 277 277 280 276 273 271 278 274 271 272 270 275 280 272 270 270 273 274 277 277 277 277 277 276 278 278 278 278 278 277 276 274 273 272 273 273 273 273 273 275 275 275 273 273 273 274 274 274 275 273 273 273
291 292 284 282 279 277 279 282 283 285 294 294 292 284 283 286 281 283 284 282 284 284 280 282 278 280 280 278 273 283 282 278 282 276 277 280 278 274 277 274 274 279 268 272 272 278 275 272 270 270 271 277 278 277 276 278 278 278 278 277 277 277 277 276 277 277 275 272 273 273 271 272 272 272 275 273 272 273 274 274 272 271 271 272 272 273 272
290 283 283 281 279 276 276 276 289 294 291 288 285 279 279 282 280 276 276 281 283 277 282 281 278 282 280 277 279 285 281 279 277 278 274 281 276 274 278 271 276 276 270 271 272 277 271 270 271 269 272 272 275 277 277 277 275 273 274 276 277 277 276 275 277 278 276 277 278 277 277 276 275 275 273 273 272 272 270 270 271 270 270 271 270 269 268
280 278 278 278 277 277 285 289 296 291 287 282 281 278 273 278 277 272 281 274 274 279 283 276 282 280 282 279 278 277 285 280 275 275 276 279 283 276 277 269 273 275 269 270 271 277 271 268 270 268 271 276 274 277 278 276 271 266 265 265 265 267 270 275 270 268 273 271 270 268 267 270 273 276 274 274 273 273 270 268 267 267 268 267 266 266 264
280 278 276 273 275 277 281 287 284 282 281 277 272 271 272 271 274 274 276 272 273 273 281 280 280 276 280 280 281 277 284 284 281 282 279 275 281 280 274 271 280 270 270 270 274 270 268 265 268 268 273 272 273 270 270 269 266 262 261 260 262 265 266 265 264 265 267 268 266 264 263 263 263 263 266 269 270 269 267 264 262 262 261 262 262 261 260
281 279 278 280 282 282 279 282 281 276 274 274 272 268 271 272 271 267 271 271 271 273 277 279 277 278 277 281 280 282 280 282 282 280 277 274 282 276 274 274 275 270 269 272 273 269 271 264 265 266 270 264 263 261 263 263 260 259 258 258 260 263 264 264 263 261 263 265 263 261 260 259 258 258 259 262 263 263 262 260 258 257 257 258 258 257 257
291 287 285 279 277 274 280 276 278 275 270 268 267 265 267 264 267 271 272 273 270 273 274 277 275 282 278 280 278 280 280 285 281 279 277 275 281 276 272 271 272 268 271 274 273 273 268 267 265 272 266 260 258 256 256 256 257 258 257 258 259 262 263 262 260 258 258 258 258 258 257 256 256 257 258 259 258 256 256 256 256 256 255 254 254 254 254
285 284 279 277 276 275 278 269 277 273 269 269 268 265 265 265 266 264 266 268 270 273 274 277 278 279 276 280 279 278 279 281 284 278 275 277 273 273 274 269 271 276 276 270 272 270 271 271 274 268 260 260 256 255 254 255 254 257 258 258 258 260 263 262 262 260 258 258 257 257 256 256 256 256 255 255 255 255 255 255 255 254 253 254 254 254 254
279 276 276 274 271 274 273 266 273 270 267 268 271 266 265 265 266 265 270 272 274 273 276 275 279 280 278 276 276 278 282 277 284 275 273 276 272 275 271 270 273 271 270 271 271 271 270 271 266 259 262 259 256 255 254 254 254 254 256 257 256 257 258 259 259 258 258 257 256 256 255 256 255 254 253 253 253 253 253 253 252 253 253 254 254 254 253
278 274 273 270 267 271 269 265 265 262 268 271 267 267 268 269 268 266 270 270 271 271 276 277 275 278 278 276 278 278 279 278 275 274 277 275 273 271 273 274 272 268 269 270 268 270 271 275 266 258 255 255 254 254 254 254 254 254 255 254 254 254 255 256 257 258 258 257 256 255 254 254 253 253 252 252 252 251 251 251 251 251 253 253 253 252 252
275 275 274 273 269 269 270 264 263 265 266 266 266 269 272 272 269 271 268 269 273 275 274 271 276 279 278 275 276 275 275 277 274 277 276 271 270 273 275 271 269 271 268 266 267 265 273 264 254 253 252 253 252 253 252 253 253 253 253 253 253 253 254 254 254 255 255 255 254 254 253 253 253 253 252 251 251 250 251 250 251 251 252 252 252 252 252
272 274 272 265 265 267 266 265 262 261 261 263 264 265 266 267 270 269 269 267 274 276 276 275 273 276 274 275 276 276 274 274 274 273 274 273 273 266 269 268 268 272 270 269 270 267 259 252 253 252 252 252 251 250 251 251 252 251 251 251 252 252 252 252 252 253 253 253 252 252 251 251 251 251 251 250 250 250 250 250 250 251 252 252 251 252 252
275 269 269 266 264 265 264 264 264 268 264 261 261 266 270 272 269 263 263 263 273 276 277 278 276 276 273 277 274 275 271 275 271 271 272 268 267 267 267 262 268 266 267 262 260 251 252 253 252 252 252 251 250 249 250 250 250 250 250 250 250 251 252 252 252 252 253 252 251 251 251 251 251 251 251 251 250 250 250 251 250 250 250 251 252 252 252
269 265 262 262 263 263 261 262 265 263 260 258 260 259 260 266 264 260 263 261 268 274 276 278 278 275 274 273 269 271 271 271 270 273 268 269 268 269 268 264 266 269 264 251 252 251 252 251 253 251 252 250 250 249 248 249 249 248 249 250 251 251 251 251 252 252 252 251 250 251 251 252 252 251 251 250 250 250 250 250 249 249 249 250 251 251 251
267 262 257 257 257 257 257 264 264 263 262 260 256 257 257 258 260 260 261 259 261 271 269 267 271 270 269 269 270 266 267 274 271 270 271 268 266 267 266 270 261 249 249 250 250 252 252 251 251 251 250 250 250 248 247 247 248 247 248 249 250 251 251 252 251 251 251 250 250 251 251 250 251 251 251 252 252 251 251 250 249 248 248 248 249 250 250
264 260 258 258 257 255 254 258 259 258 257 257 257 257 257 259 258 257 260 259 264 272 268 268 270 269 269 268 270 271 273 270 269 269 262 256 252 260 259 252 250 250 251 250 250 251 251 251 250 250 249 248 248 248 247 247 247 247 248 249 250 251 251 251 251 250 250 250 250 250 250 250 251 252 253 253 253 252 251 249 248 247 248 248 247 248 248
Wind_Speed
16 15 13 13 14 12 11 11 10 9 5 3 4 6 4 8 12 1 19 22 23 15 15 11 12 12 15 6 1 1 3 8 2 8 9 9 9 3 4 6 7 10 8 6 9 12 7 14 13 8 11 8 13 5 15 11 15 14 7 7 0 5 3 3 1 0 1 1 2 3 3 3 1 1 2 4 13 11 8 4 4 6 1 3 1 6 7
17 16 14 13 13 13 13 12 11 9 5 4 4 7 7 6 9 2 6 21 21 19 17 15 12 11 9 10 11 7 2 5 7 7 12 11 9 13 6 3 6 3 7 5 9 13 6 11 16 9 6 6 9 9 14 17 11 13 8 11 9 5 3 7 2 2 0 2 3 2 3 1 3 4 10 10 3 2 3 3 1 3 11 8 7 16 11
17 16 16 14 13 13 13 12 11 10 9 5 3 4 2 3 2 3 7 13 16 14 12 14 13 14 16 14 18 12 9 7 11 13 8 7 6 7 12 12 3 3 2 4 4 13 19 5 11 7 7 7 3 13 15 18 13 11 10 14 14 8 7 10 8 12 12 10 10 10 7 11 5 3 4 9 14 14 4 7 7 9 8 12 9 18 4
17 17 16 16 14 13 12 13 12 11 10 7 4 3 4 8 7 3 7 9 8 13 15 16 14 15 15 13 13 15 15 8 12 10 11 10 8 11 5 3 4 4 1 4 5 8 12 12 3 10 6 4 1 3 14 17 11 10 12 9 11 3 4 12 14 15 16 16 3 3 9 4 6 11 13 15 14 13 12 7 7 17 4 9 20 20 12
17 17 18 17 15 14 13 13 13 12 10 8 3 3 5 1 9 6 5 6 15 9 6 11 16 17 17 13 9 17 20 14 7 14 5 12 12 9 12 4 7 11 10 9 11 12 4 5 3 8 10 1 2 3 7 10 7 11 7 9 5 3 4 13 15 16 18 15 8 9 18 16 17 13 12 14 13 14 13 14 19 6 7 16 19 6 13
19 18 18 18 16 14 14 13 13 12 11 11 5 5 4 8 3 9 3 4 6 16 13 9 13 16 21 15 10 18 19 15 10 10 18 10 11 8 7 13 13 15 21 17 11 10 11 5 8 5 2 3 0 2 2 6 3 10 5 11 8 7 8 10 11 15 18 17 13 12 12 13 13 15 15 15 17 15 20 24 23 9 12 20 17 11 18
20 19 17 18 18 16 15 14 14 13 15 12 6 5 4 6 4 2 1 6 2 7 2 6 12 17 20 12 18 17 20 21 19 11 11 14 9 13 8 16 24 22 16 15 12 12 8 13 13 6 4 7 4 3 2 2 6 1 3 4 0 3 6 9 12 16 16 18 16 8 11 6 5 12 15 17 19 23 25 24 18 15 16 21 23 13 18
22 20 19 18 18 17 15 14 14 13 16 10 6 7 5 5 5 3 1 3 3 3 5 5 4 9 13 13 15 16 18 24 19 12 11 11 17 15 19 18 21 21 17 18 18 19 21 20 19 10 9 4 3 7 6 5 1 1 5 5 2 4 7 5 4 7 14 18 12 5 10 8 9 9 13 18 22 23 23 17 13 17 21 26 22 14 20
22 21 21 19 18 17 16 15 13 12 11 7 8 3 8 2 1 2 3 3 4 4 4 3 8 11 7 12 11 14 18 20 18 17 17 21 17 18 24 25 18 17 20 18 21 20 21 21 19 7 12 13 9 10 5 8 9 5 3 2 1 3 5 3 3 7 12 14 11 6 5 5 7 12 16 22 20 12 6 12 19 14 20 22 14 16 23
22 21 21 19 18 18 17 15 14 13 13 6 3 9 2 2 1 3 1 7 6 7 3 7 6 10 8 7 7 6 12 16 14 11 9 12 11 13 22 22 16 9 13 19 21 23 17 11 7 7 8 9 7 7 6 13 12 9 8 2 6 8 5 5 4 10 13 17 5 9 4 1 6 14 28 26 13 12 12 14 13 18 18 13 16 22 19
24 22 21 20 17 19 18 17 15 14 8 8 5 4 3 5 4 2 3 9 4 7 7 6 10 2 2 6 7 6 4 6 6 13 4 9 16 10 12 18 15 12 18 16 6 3 5 5 5 4 4 3 5 5 7 6 10 13 12 4 3 4 5 6 5 10 11 10 6 5 4 12 17 15 12 14 18 19 19 18 20 18 13 17 19 19 15
23 22 20 20 19 17 18 17 15 15 11 8 5 5 3 1 1 1 3 11 8 6 9 7 10 3 5 6 10 8 10 9 6 5 9 3 7 11 7 6 10 13 2 5 9 7 7 4 8 7 8 5 3 4 9 12 7 4 11 13 8 9 6 7 4 3 8 3 8 5 15 18 8 3 3 6 17 19 20 22 19 18 19 19 17 18 18
23 23 20 19 17 17 19 18 16 13 11 8 7 8 4 2 2 2 3 3 6 5 9 6 5 5 6 7 6 9 10 4 2 3 3 7 3 2 8 11 11 6 5 7 9 6 4 3 1 2 2 3 3 2 5 7 10 8 7 9 11 10 11 4 3 3 2 3 7 8 11 4 4 2 2 2 3 3 7 13 19 20 19 20 22 24 22
22 20 17 19 16 16 18 18 16 13 13 10 9 8 4 3 4 4 4 2 4 5 5 3 5 5 7 9 7 4 4 6 2 1 4 2 2 6 1 1 2 2 2 7 5 6 2 2 6 3 3 3 1 3 7 10 7 11 12 9 8 13 8 9 8 7 9 6 11 16 6 13 11 6 3 6 7 8 12 12 16 18 17 17 18 22 20
18 17 14 14 13 13 18 18 15 14 12 11 9 7 6 5 4 3 1 4 6 4 7 9 8 11 12 7 6 6 4 3 5 6 2 2 0 2 1 2 3 3 2 7 2 4 6 3 5 6 2 7 9 9 4 6 1 3 5 8 9 10 13 8 12 6 12 12 12 5 6 14 19 5 3 8 5 9 9 9 13 7 10 15 16 20 18
14 11 11 12 11 12 14 17 15 13 11 11 8 7 7 6 5 3 4 3 1 7 9 11 11 9 9 5 10 11 8 5 6 3 2 3 4 1 2 1 1 1 1 1 4 5 5 7 7 8 7 9 2 5 4 4 2 0 2 1 4 2 4 7 14 5 6 9 10 9 10 11 1 3 3 2 2 6 4 4 13 1 1 4 10 18 16
14 11 9 11 10 9 11 14 15 13 11 10 6 5 6 7 6 5 4 3 4 7 4 5 4 7 6 4 3 2 3 4 5 5 3 5 5 2 0 1 0 3 3 5 3 5 5 6 3 5 1 3 5 6 5 2 4 1 2 3 4 9 8 6 8 9 8 9 9 11 5 7 3 4 0 1 0 6 8 4 7 2 3 3 3 8 5
15 10 13 13 11 9 9 11 14 13 11 9 4 3 3 5 6 4 5 3 3 4 4 6 6 5 9 8 8 3 4 3 4 1 2 1 4 3 3 2 2 2 1 6 6 8 7 8 11 8 10 2 1 6 8 8 6 7 8 11 7 6 1 9 16 14 15 15 10 4 6 3 2 4 3 1 2 5 8 12 2 0 2 3 2 4 7
12 11 13 14 11 10 9 10 13 13 11 8 3 2 4 4 6 6 2 3 4 6 2 3 2 2 1 4 3 4 3 7 8 7 4 2 3 3 6 2 1 3 3 5 5 8 8 6 1 2 5 3 3 7 4 7 7 3 9 7 1 4 4 1 4 12 13 13 13 11 4 3 4 1 5 3 7 7 11 1 1 2 0 1 3 5 3
12 12 13 14 13 11 10 10 10 12 12 9 4 4 2 5 7 8 7 4 3 6 2 2 3 8 3 8 7 5 2 3 3 6 6 6 3 9 4 2 1 2 2 2 6 2 6 9 7 2 4 5 6 3 1 1 3 9 5 7 9 12 10 9 12 5 1 2 8 2 9 1 6 8 3 1 5 2 3 3 1 2 1 1 2 3 4
12 12 13 13 12 12 11 11 12 12 11 11 5 3 5 3 6 6 6 5 2 3 5 2 0 4 2 4 7 14 15 11 9 4 3 4 9 8 7 7 8 7 7 7 9 6 4 4 4 4 2 4 4 3 6 5 2 5 4 5 3 4 6 4 6 5 7 8 9 7 2 5 2 2 7 4 3 2 5 3 1 1 1 0 1 1 2
14 13 13 13 13 13 13 13 12 12 10 12 7 2 5 3 3 5 5 4 4 4 1 2 3 3 2 2 2 3 3 6 10 6 10 6 3 3 2 4 7 4 2 2 3 2 1 1 2 3 3 2 2 5 2 6 7 3 3 1 4 5 6 2 6 1 5 4 2 0 2 1 1 1 0 1 1 2 4 2 2 1 1 2 4 2 2
13 13 13 13 13 14 14 13 13 13 12 12 8 4 5 2 1 3 6 3 0 2 2 2 2 3 2 3 2 2 2 2 2 2 5 11 3 0 1 5 3 1 1 1 4 3 3 4 3 1 2 1 5 3 2 1 2 5 8 4 1 3 2 0 7 1 1 2 1 1 2 1 1 0 1 1 0 2 1 2 2 0 1 1 3 4 4
14 13 13 13 14 14 14 14 14 14 14 13 10 3 4 3 4 4 2 3 2 2 2 2 0 6 10 13 4 2 1 2 2 4 1 6 10 2 1 3 1 2 1 2 1 5 3 3 2 1 2 2 4 1 5 3 4 3 2 0 0 1 0 1 4 2 5 3 1 1 2 2 4 2 1 1 1 1 0 2 1 1 4 3 3 6 5
14 14 14 14 14 15 15 14 14 15 15 15 10 4 3 1 2 5 4 3 2 4 5 1 9 4 2 2 4 1 3 2 1 3 3 2 7 10 8 3 3 5 7 5 1 6 2 4 1 2 3 3 3 3 1 4 2 3 3 3 3 2 3 5 1 4 3 0 4 3 4 4 4 3 2 1 0 2 4 2 2 4 4 5 3 4 5
15 15 15 15 15 15 16 15 15 15 15 16 11 4 4 4 4 4 3 1 2 1 4 5 3 1 2 1 3 3 2 3 3 4 3 3 3 7 10 3 3 3 5 2 2 5 4 4 3 1 4 3 2 2 1 1 2 1 3 3 3 3 6 3 4 4 1 2 2 1 1 2 5 4 5 5 3 2 3 2 4 5 7 5 5 3 3
15 16 16 16 16 16 16 16 16 16 16 15 7 4 5 4 6 9 6 6 3 4 4 6 2 1 2 4 1 1 3 5 6 8 6 6 9 6 8 8 9 4 6 4 3 4 2 2 2 4 2 2 2 1 1 1 1 2 4 3 2 5 4 2 5 4 3 7 8 9 7 4 6 9 10 9 5 5 4 4 4 5 6 5 6 4 4
15 16 16 16 17 17 17 17 16 17 16 15 8 5 4 5 5 8 7 7 8 3 1 2 1 4 2 2 2 2 2 5 8 8 7 6 8 9 9 9 8 6 3 6 2 2 1 4 3 1 2 1 3 1 1 0 2 2 3 5 4 6 7 7 6 7 6 4 8 11 2 3 7 12 10 9 5 6 6 6 6 4 4 6 8 6 4
15 16 17 18 18 19 18 18 17 17 17 12 2 2 4 5 6 7 9 5 5 2 1 2 2 1 5 4 3 2 0 6 9 9 8 6 7 8 9 8 8 6 4 4 3 3 3 2 2 4 3 4 5 2 3 1 2 7 5 5 4 4 6 8 7 5 1 5 12 11 4 4 4 8 9 10 7 7 5 3 4 5 7 5 5 6 8
16 16 17 18 19 20 19 18 18 17 15 4 3 1 1 3 6 8 8 9 8 4 2 2 2 3 2 4 0 1 1 3 8 10 9 7 7 6 7 7 3 2 3 4 5 3 2 3 0 1 2 2 4 3 3 3 3 6 3 10 9 4 4 6 8 8 4 4 8 12 9 6 2 4 8 6 7 8 6 6 6 5 4 4 6 3 4
16 18 19 19 20 20 20 20 19 19 14 3 3 5 4 5 4 9 13 10 9 6 2 1 3 1 3 1 1 1 4 4 6 9 8 7 5 5 2 4 2 3 3 2 4 2 3 1 2 1 0 1 1 3 4 3 3 3 3 7 9 8 6 7 6 4 6 6 6 4 2 1 0 5 3 6 5 5 4 4 4 5 7 5 4 5 5
17 18 19 21 21 20 20 20 20 17 7 7 9 6 3 1 1 8 16 12 10 3 3 3 2 1 2 1 0 2 2 4 4 3 2 2 3 1 3 3 4 1 3 3 2 2 1 3 3 3 4 3 4 1 2 2 5 4 2 4 6 6 5 5 5 3 3 8 9 6 3 1 1 6 5 5 6 5 7 6 5 6 6 5 4 4 4
16 17 18 18 19 20 20 21 21 15 7 7 11 12 5 3 4 7 11 10 6 2 2 2 3 2 1 4 2 2 1 3 3 3 2 1 4 2 3 1 3 3 4 3 0 3 1 3 2 4 4 1 3 2 3 7 7 4 7 8 5 4 5 3 3 4 7 7 8 9 6 6 5 1 1 7 7 8 8 9 6 7 7 7 7 6 5
16 15 14 15 16 18 18 18 19 19 9 6 5 6 9 11 4 10 9 6 1 2 2 3 3 3 2 2 5 3 1 6 6 7 5 1 1 4 4 3 1 3 3 5 3 3 2 2 2 3 1 2 0 2 4 8 5 8 8 5 4 3 3 4 4 6 5 4 2 1 3 4 6 6 6 7 6 4 6 7 8 8 5 6 5 5 4
14 10 10 11 13 15 16 14 7 5 4 4 3 4 4 11 10 17 13 6 5 3 3 2 2 4 3 2 4 4 2 2 6 4 5 2 2 5 2 5 1 3 6 3 2 2 2 2 4 4 4 1 3 3 7 3 9 9 6 5 4 6 5 6 2 4 4 3 4 5 8 9 9 5 6 4 6 7 9 5 5 9 7 4 5 4 4
9 5 7 9 10 7 1 4 3 5 4 5 6 6 13 14 17 12 11 3 2 2 3 4 5 5 5 7 8 4 4 3 2 4 2 3 3 1 3 4 3 3 0 3 4 1 2 3 5 2 2 3 9 7 4 8 11 10 10 9 9 10 9 11 8 5 3 4 7 6 7 5 8 7 6 6 6 5 7 7 2 4 8 7 5 4 3
2 2 2 5 5 4 3 3 3 5 6 4 2 3 13 9 2 3 4 1 1 1 2 2 5 6 7 4 1 2 6 6 3 4 1 4 6 2 3 2 4 2 5 1 1 3 4 1 4 2 3 10 4 3 6 8 10 9 5 8 10 5 5 4 8 10 6 6 7 4 4 5 5 5 7 7 7 5 6 6 8 7 5 7 6 6 5
5 4 4 3 3 1 1 3 4 4 10 18 13 5 3 0 5 3 3 5 3 4 2 0 3 3 3 5 3 7 7 3 3 5 1 3 5 1 1 3 4 3 4 3 4 4 3 2 2 5 6 3 1 2 4 7 7 7 8 7 7 6 6 7 9 10 8 3 1 2 2 2 3 3 6 6 5 7 5 3 3 3 4 5 6 7 6
8 2 2 1 1 2 3 3 4 14 9 3 3 1 1 1 3 3 3 3 4 5 3 4 6 5 7 4 3 2 2 7 9 4 7 6 5 4 3 4 3 4 1 1 5 2 2 2 0 1 9 3 4 5 3 3 2 2 1 2 5 6 6 7 7 11 10 9 11 10 11 10 8 8 5 4 2 1 3 4 5 4 5 6 7 6 7
3 1 2 1 3 3 3 3 14 10 3 3 1 2 2 2 4 4 2 2 2 1 5 7 3 4 6 12 12 7 2 7 10 9 9 6 1 6 3 3 2 4 3 3 4 4 6 5 3 1 10 9 6 5 7 5 5 4 6 6 6 5 2 4 3 4 2 3 4 4 3 2 1 5 7 6 6 5 4 6 5 5 6 6 5 7 5
1 2 1 2 5 1 2 3 2 2 3 2 2 1 0 2 2 1 2 4 2 3 2 5 5 3 1 3 4 8 2 3 2 5 3 3 2 5 4 4 3 5 2 3 2 5 2 2 1 5 11 2 8 2 4 6 5 4 7 8 6 6 4 6 7 5 3 6 5 7 6 5 7 6 3 4 5 5 6 6 6 5 5 6 7 5 2
4 3 2 1 1 1 2 1 2 2 1 1 3 3 3 2 2 3 1 3 5 2 2 3 7 9 7 9 6 4 2 1 2 2 3 3 2 4 3 1 1 4 3 3 4 2 4 2 2 6 2 2 2 3 4 5 5 4 7 8 7 6 5 6 9 10 7 8 8 7 6 10 11 8 5 7 9 9 10 10 10 8 8 4 4 4 3
8 6 4 2 2 2 0 0 2 2 3 1 2 1 0 0 3 3 2 1 3 2 3 2 0 3 2 4 4 1 3 2 3 2 2 4 1 3 3 2 2 3 3 3 4 4 4 5 6 11 5 3 2 3 4 3 3 3 4 5 6 6 6 7 9 9 7 8 8 8 9 11 11 7 6 7 11 11 9 7 5 6 5 5 5 4 4
2 1 2 0 0 2 1 5 2 3 1 1 3 3 2 1 3 3 1 3 2 1 3 7 7 11 7 1 5 3 3 1 1 2 2 1 4 3 2 2 4 1 4 2 3 5 7 4 8 2 5 3 3 3 4 5 4 2 3 7 7 6 6 6 7 8 8 6 6 6 6 8 9 6 7 8 8 11 10 8 5 5 4 5 7 6 4
3 1 2 1 1 2 2 3 1 2 4 4 4 3 4 6 5 4 6 3 4 5 4 3 5 9 8 3 3 1 2 4 1 4 3 3 3 2 3 4 2 2 3 5 3 2 1 6 2 6 5 5 2 3 2 4 4 2 2 3 7 7 6 7 6 6 6 6 6 5 6 4 6 8 8 9 8 6 8 8 3 5 5 7 7 7 6
5 4 3 2 2 1 2 1 1 0 2 3 4 6 7 7 7 6 6 2 4 1 6 6 4 7 8 2 5 5 3 3 4 2 2 2 4 3 2 1 4 4 2 3 5 9 12 11 5 4 4 3 3 3 4 3 6 4 3 4 3 5 6 5 6 6 6 5 5 6 5 5 5 6 8 8 7 7 7 5 4 4 5 8 8 7 5
1 1 1 0 1 2 1 2 3 3 2 2 4 6 8 8 5 3 2 3 6 6 4 1 3 7 10 4 4 3 1 1 3 2 4 3 3 1 3 4 3 3 7 7 6 3 8 3 2 2 3 3 3 3 4 4 4 5 5 3 2 4 5 6 5 6 5 6 6 6 5 5 6 7 7 11 10 8 7 6 6 5 7 8 6 5 7
5 0 2 3 3 2 5 4 1 0 1 2 3 5 3 3 5 1 1 2 1 5 8 6 4 2 3 4 3 5 5 2 4 2 2 3 3 4 2 2 2 1 2 6 9 4 2 4 2 3 3 4 3 4 4 5 4 3 3 4 5 4 4 5 6 6 6 6 7 6 5 6 6 7 10 10 9 7 7 6 6 5 7 8 7 7 8
2 2 3 2 1 1 0 1 3 4 1 5 3 0 5 7 4 1 5 5 3 7 5 7 5 4 1 0 3 2 2 3 4 4 3 3 4 5 5 5 4 3 1 1 0 4 3 4 3 3 3 4 4 4 4 4 4 3 2 2 4 4 4 4 5 5 5 6 5 6 6 5 6 7 8 9 11 7 6 6 7 7 6 7 7 8 8
3 3 6 4 2 0 2 1 3 3 3 5 4 4 8 2 5 3 6 5 2 3 2 4 3 4 2 3 0 1 1 0 2 2 4 4 3 2 4 2 3 7 5 2 2 2 3 3 3 4 4 4 5 5 4 4 4 2 0 1 1 3 4 4 5 6 7 5 5 5 4 5 6 6 9 10 9 7 7 8 7 7 7 5 6 7 8
3 5 4 3 0 1 4 4 6 7 3 2 6 5 7 5 3 3 8 6 7 2 3 2 2 2 2 2 1 2 3 2 4 2 4 4 2 2 5 7 2 1 1 1 1 2 3 4 3 3 4 4 4 4 3 4 3 2 2 0 2 4 4 6 6 7 7 5 4 6 8 7 6 7 7 8 9 10 11 9 8 6 6 6 5 7 8
3 4 3 4 6 5 3 3 4 6 3 3 3 5 5 3 6 7 8 6 3 7 6 2 4 2 2 3 3 1 2 4 1 3 5 2 3 0 2 2 4 3 3 4 3 2 3 3 4 3 3 4 4 4 4 3 3 4 5 5 4 4 5 5 6 6 5 6 6 7 6 5 5 5 5 6 7 10 11 7 4 4 6 6 6 6 7
Wind_Direction
279 281 278 274 279 290 298 278 258 270 292 301 261 199 225 214 238 45 164 154 157 173 208 193 194 205 223 216 59 268 195 210 163 176 189 209 235 258 242 206 200 213 198 171 181 173 201 184 207 205 216 228 202 191 179 158 164 171 197 184 271 78 110 164 267 292 314 329 323 6 35 93 65 260 124 150 207 197 207 203 168 196 208 185 307 256 261
275 278 279 274 273 280 289 283 255 259 229 236 321 247 217 220 234 201 201 168 161 180 203 200 201 210 235 219 224 216 246 181 193 218 188 191 195 218 220 233 219 244 198 176 189 178 219 213 205 220 200 244 192 193 186 161 176 167 195 170 182 163 245 146 101 332 339 341 338 351 341 40 207 193 210 210 215 219 222 79 133 275 221 160 167 250 258
268 271 274 275 271 274 278 285 259 244 241 231 226 257 224 212 286 220 181 198 177 194 188 201 192 202 214 202 214 213 234 217 213 205 208 199 214 201 229 214 130 197 173 203 182 190 204 218 212 207 191 224 209 190 187 182 179 196 179 176 165 185 155 150 186 212 225 227 207 198 180 196 211 249 178 194 200 203 154 234 214 230 243 144 221 251 245
265 265 268 270 270 267 266 275 260 228 235 215 223 241 279 192 230 163 184 215 238 209 192 189 189 198 206 218 219 206 223 216 213 207 222 209 210 220 244 220 231 254 235 245 237 226 224 219 177 196 217 221 328 249 192 185 188 185 161 167 154 157 181 185 191 206 226 236 249 133 133 89 187 218 189 208 207 203 202 219 215 225 194 184 228 233 264
261 263 263 267 268 262 261 267 265 230 209 190 205 257 255 244 212 186 224 163 226 244 207 207 182 198 188 210 179 209 213 211 207 197 234 211 216 215 221 177 184 215 234 237 240 239 223 230 194 202 197 250 224 321 173 196 194 149 130 157 100 92 179 216 209 210 227 235 213 176 159 184 206 197 205 203 195 197 194 207 228 165 95 248 245 195 244
261 259 261 264 264 262 258 264 270 236 206 178 191 240 200 243 224 192 212 212 189 218 235 208 213 204 185 207 178 211 206 203 208 175 219 213 207 218 212 216 214 212 210 213 226 223 233 178 222 204 195 116 324 105 22 172 225 157 173 177 169 155 198 218 208 230 234 237 225 168 186 189 191 198 199 199 204 196 204 220 224 168 204 237 251 166 228
258 256 256 258 262 263 256 255 264 250 207 183 198 231 219 241 306 265 133 196 204 212 113 213 224 218 195 203 205 205 204 205 203 192 189 211 205 202 221 209 214 218 212 209 218 214 217 234 229 188 172 179 136 146 35 302 37 57 121 188 243 154 235 213 193 221 233 239 234 181 177 204 188 201 205 204 200 207 210 220 218 210 229 240 250 221 233
260 258 254 254 257 259 255 250 255 259 221 188 218 215 238 204 223 271 224 227 239 159 169 180 225 252 207 211 206 208 205 207 200 202 180 194 210 193 216 218 212 213 212 206 215 210 210 211 219 197 160 209 174 192 181 146 358 108 174 178 311 152 230 148 138 220 242 244 243 200 203 208 222 215 214 218 216 213 212 215 224 223 234 241 247 261 265
257 256 254 252 254 253 254 249 250 260 224 204 204 234 196 270 147 26 293 224 211 167 165 203 218 233 217 221 216 221 214 220 202 204 197 197 191 193 210 218 216 210 211 213 218 220 217 218 219 190 174 194 200 169 235 158 157 165 130 174 216 149 269 39 115 209 250 246 226 203 197 226 241 247 236 228 222 224 201 211 221 209 226 237 248 256 253
250 251 252 253 255 252 251 248 244 254 225 207 199 231 161 228 278 125 263 259 172 191 157 194 199 233 217 199 219 237 230 229 200 218 213 217 214 201 211 219 216 215 220 221 221 225 225 230 231 188 191 204 184 200 152 164 157 170 182 108 157 185 154 168 156 216 239 251 133 178 174 197 257 245 239 233 220 206 218 230 227 219 219 228 226 238 248
249 249 249 248 252 253 249 246 243 244 227 209 207 235 167 180 209 179 215 254 219 196 176 206 197 201 177 195 215 225 281 271 230 202 194 192 220 207 208 217 212 216 215 219 233 51 75 91 87 47 73 90 129 135 135 164 169 164 162 139 181 128 173 208 148 223 234 253 126 130 153 224 229 237 238 228 227 215 215 223 220 222 202 222 225 237 246
250 244 245 247 249 251 249 245 243 245 231 225 214 234 210 158 101 183 243 239 237 184 196 213 188 205 189 190 203 213 229 239 247 215 223 203 223 211 202 222 205 224 206 92 99 98 89 81 60 57 43 42 83 141 153 168 199 195 161 164 163 181 187 208 136 180 234 110 109 180 219 231 239 36 221 205 219 221 219 231 232 224 221 234 248 253 252
249 242 239 243 246 251 250 245 239 242 241 220 214 231 217 162 168 174 223 221 250 201 197 206 180 177 156 168 192 222 218 198 78 21 303 234 252 195 207 212 212 217 121 110 107 128 186 188 62 92 60 49 29 53 181 184 196 185 205 172 160 187 193 174 208 162 33 119 184 233 225 254 314 261 67 220 103 157 199 242 242 235 225 220 231 240 244
245 236 233 238 238 243 248 243 243 239 242 223 216 223 202 151 196 188 211 255 247 200 187 163 177 164 172 183 185 189 153 194 171 48 255 28 231 221 237 27 280 32 158 120 126 124 186 130 233 168 237 154 23 198 213 208 201 185 196 216 193 185 188 185 232 168 220 198 217 239 337 309 276 253 201 151 171 167 175 223 241 231 224 221 229 239 241
248 235 232 237 241 244 249 249 244 243 242 237 217 224 202 198 196 201 171 234 264 271 198 205 173 192 183 188 169 172 189 183 175 221 196 63 131 262 264 301 324 346 332 144 153 175 192 133 206 193 167 170 213 225 96 206 9 347 232 214 200 185 197 189 213 208 203 218 235 241 243 247 253 234 230 194 180 169 175 194 262 241 207 214 220 235 235
273 262 244 240 242 246 251 251 245 241 238 240 230 221 214 201 181 181 218 177 239 248 217 216 181 164 169 179 181 179 186 183 189 142 135 202 225 27 264 227 288 359 341 137 157 158 150 189 196 200 202 200 188 86 240 134 231 85 53 117 181 235 237 189 203 196 170 223 233 225 227 246 110 184 203 182 97 141 134 134 252 302 355 272 216 229 231
256 253 256 250 242 247 258 262 256 245 243 231 229 220 228 178 184 184 208 199 198 237 325 232 165 135 109 104 101 195 162 175 163 153 191 219 198 168 192 40 325 128 225 162 196 149 149 191 173 206 232 135 153 200 84 141 168 231 55 90 162 193 194 172 211 217 205 209 224 234 220 256 231 224 238 215 233 129 112 183 263 308 316 294 225 241 226
248 249 258 253 243 244 256 269 263 254 250 253 229 184 241 184 187 158 216 212 192 266 215 168 167 155 178 170 166 170 112 93 77 58 96 164 115 155 185 146 98 225 154 206 158 203 197 201 201 199 208 183 150 119 200 164 183 181 178 169 156 176 201 200 206 211 216 217 238 279 274 265 222 196 211 214 184 130 161 212 207 206 267 290 188 166 167
260 254 252 260 252 241 240 252 270 269 255 248 237 199 223 197 189 193 179 155 194 238 255 259 264 231 61 61 101 147 173 177 159 144 169 126 246 169 127 205 169 167 166 189 186 202 198 211 81 167 179 207 201 194 134 160 189 97 119 119 58 219 164 359 218 225 221 219 228 234 270 239 156 276 171 201 114 198 212 199 194 185 237 307 155 131 143
251 256 255 251 256 260 259 252 255 269 265 247 207 223 224 184 192 180 199 199 187 242 287 215 216 225 216 144 141 119 127 78 183 139 180 180 149 112 80 139 316 109 84 158 217 218 203 205 193 163 203 167 210 127 72 256 85 160 175 191 170 178 165 193 201 200 24 119 233 202 244 228 103 127 47 264 152 265 116 131 273 218 201 92 9 114 148
248 250 258 262 260 260 263 265 265 260 260 255 216 220 251 216 188 192 205 222 201 252 258 213 129 268 214 234 194 171 160 170 176 163 202 135 168 146 164 214 178 163 181 165 192 184 177 186 152 185 222 140 195 119 195 155 217 283 141 180 168 176 146 199 223 162 187 191 209 212 242 139 293 158 174 186 186 158 156 126 104 142 147 130 95 15 174
252 254 258 261 260 257 260 262 263 267 270 266 235 201 246 218 194 188 172 165 210 214 250 295 272 276 267 278 252 221 198 194 184 155 141 132 219 183 228 96 134 147 192 123 60 50 12 179 56 116 164 203 347 192 171 148 204 190 351 162 159 207 178 166 180 138 152 199 186 159 222 249 283 145 229 359 10 73 178 135 149 164 158 156 106 155 103
256 257 258 259 260 259 257 259 261 263 263 266 263 201 229 152 174 174 152 123 346 288 331 336 310 273 268 263 216 243 199 237 142 92 142 128 176 4 149 144 188 179 102 92 154 124 136 108 189 169 38 273 168 142 349 186 129 161 174 243 127 7 140 78 96 221 156 22 115 67 14 253 258 201 212 103 13 5 103 141 79 206 191 131 128 152 138
254 257 257 258 258 259 258 258 261 262 260 253 250 204 242 207 178 121 82 88 142 245 263 210 11 243 213 229 210 262 242 246 220 176 227 129 144 193 311 285 201 57 20 226 176 134 174 108 193 102 152 240 94 132 166 204 220 170 92 190 346 297 321 68 105 197 134 231 118 217 207 260 278 304 327 195 201 197 156 99 90 101 111 76 75 138 144
252 254 255 256 258 258 257 256 256 256 257 259 258 244 221 265 163 150 145 179 199 162 233 193 221 236 307 301 126 112 225 216 104 100 103 105 147 170 185 179 156 161 180 175 199 89 80 121 143 75 154 258 108 230 247 105 279 147 144 251 113 294 189 76 159 128 157 281 157 246 315 288 291 301 290 265 271 49 28 57 93 99 89 87 90 111 106
252 253 254 255 255 255 256 256 255 255 257 257 253 216 218 214 185 150 130 48 55 111 233 244 244 28 331 127 174 214 174 120 114 77 74 125 131 136 134 117 48 27 96 94 88 107 132 79 113 160 139 265 89 169 200 224 154 355 151 218 192 181 122 199 155 113 70 2 326 313 43 325 280 291 273 248 220 139 97 85 101 105 99 83 54 54 131
254 255 255 254 253 253 255 255 255 256 256 256 250 221 242 240 167 162 162 171 151 268 210 249 189 297 317 225 287 53 112 133 106 102 89 89 102 108 110 116 112 92 97 58 33 105 63 105 111 177 161 203 97 149 103 32 97 165 175 245 145 106 166 179 100 98 186 192 190 164 137 243 232 236 229 229 211 159 146 120 106 117 117 112 93 54 46
257 257 257 256 254 251 250 250 253 254 254 255 252 225 223 241 202 188 163 160 189 230 292 280 72 241 121 345 290 309 160 124 124 112 107 109 114 120 124 128 123 115 118 117 76 70 124 134 207 208 75 290 73 343 122 249 45 8 225 236 194 149 188 150 173 174 211 195 169 187 165 174 203 201 210 214 195 156 160 172 158 159 142 140 123 110 82
258 259 259 256 254 250 247 246 245 246 248 253 235 265 282 232 224 204 180 163 103 97 132 260 320 71 168 222 102 78 53 130 120 120 118 119 120 126 133 138 134 146 106 82 109 105 122 184 117 138 177 218 102 214 117 171 194 226 216 169 172 233 171 170 173 126 246 173 172 184 164 173 221 210 199 199 179 164 179 162 154 152 158 162 143 148 141
262 262 260 256 253 249 246 242 241 239 240 203 159 154 205 265 197 192 184 166 158 138 167 194 175 231 52 36 285 226 117 114 116 114 116 118 119 128 140 125 127 125 123 148 150 125 193 120 203 311 298 334 126 197 110 223 226 259 201 167 188 184 178 176 153 142 202 193 171 185 200 219 253 214 198 171 156 161 164 169 169 151 169 157 140 158 166
265 268 264 258 250 246 242 238 235 233 226 136 168 212 193 246 211 187 174 165 159 149 221 156 205 89 24 271 86 183 161 127 117 118 123 124 132 135 138 90 69 98 98 70 67 183 117 87 148 223 33 315 119 125 183 163 228 300 255 186 184 181 180 183 193 170 146 163 172 154 101 115 150 78 85 148 164 147 115 147 166 150 156 146 151 149 147
261 261 262 258 250 242 237 233 233 231 211 167 196 191 198 223 29 177 173 161 141 130 176 153 200 21 242 146 249 269 118 129 97 92 70 104 68 70 41 81 154 83 119 130 196 63 226 203 110 179 138 228 111 122 125 138 205 242 193 189 215 190 170 154 165 227 163 147 121 96 117 85 240 150 195 168 150 142 136 144 148 136 133 123 114 94 106
256 262 261 256 248 240 235 232 229 224 211 216 220 242 184 245 316 193 160 138 128 201 188 207 205 198 171 221 110 342 190 80 42 115 129 301 140 111 73 31 48 55 319 85 304 161 233 109 144 127 225 46 108 190 151 216 218 193 178 194 190 168 164 175 130 147 147 162 156 151 186 178 213 237 120 132 130 136 130 125 134 123 114 112 111 107 93
256 260 263 255 245 237 234 234 229 226 218 224 240 231 248 230 219 156 132 119 104 194 148 173 167 109 166 76 84 213 115 158 166 150 111 347 177 92 178 78 7 116 305 132 248 77 324 72 105 185 34 5 254 74 249 240 153 164 183 193 167 138 119 112 136 144 152 123 25 95 146 122 94 91 92 106 98 79 101 114 121 106 106 115 124 128 136
247 263 271 257 240 234 231 227 224 193 196 219 231 261 199 187 185 158 161 161 151 219 179 219 149 134 103 44 158 191 148 147 163 191 121 164 67 143 155 91 290 112 259 108 40 139 144 190 186 109 217 237 59 238 237 131 156 166 177 169 160 127 95 97 187 162 117 69 84 93 116 126 114 113 131 131 129 136 126 135 131 124 121 137 139 142 133
243 265 292 270 248 242 238 219 175 171 165 201 221 177 172 182 175 174 179 132 141 207 165 189 142 176 161 157 181 184 130 102 111 54 103 123 52 38 101 121 91 238 290 85 190 99 155 240 93 211 219 117 221 207 209 159 164 178 183 171 174 162 173 169 157 133 96 75 94 96 103 124 141 154 145 154 151 151 142 135 128 126 136 147 163 153 119
38 328 343 21 43 76 196 185 175 193 210 175 107 166 168 135 31 151 154 179 7 98 184 198 146 188 167 180 86 204 150 160 163 95 107 110 147 122 76 60 149 192 66 353 125 142 228 51 110 173 196 203 251 158 172 169 168 175 184 182 179 174 148 135 132 121 101 89 75 58 87 115 117 139 146 159 167 156 134 155 164 147 154 159 147 139 157
148 99 97 84 97 79 211 197 205 209 136 117 118 73 347 108 173 171 179 191 194 128 249 285 227 147 67 105 170 199 144 143 79 120 107 193 109 326 149 119 214 128 143 183 216 185 106 57 174 187 262 225 230 215 175 178 193 187 179 170 167 166 152 147 134 122 132 115 135 131 73 87 158 200 165 172 148 162 185 158 134 102 107 116 132 127 109
142 101 40 95 208 205 184 252 171 134 120 41 52 74 234 200 171 213 214 162 152 191 198 167 208 164 140 78 90 115 171 153 152 181 150 191 126 161 128 131 258 86 260 92 280 129 108 254 157 199 255 213 169 225 223 149 87 31 53 159 161 163 160 151 150 148 164 186 195 191 173 178 190 218 206 174 172 83 99 105 94 90 102 106 106 98 94
62 86 148 162 206 233 274 200 143 118 115 128 206 128 199 212 195 230 168 93 171 192 158 195 180 165 190 160 151 185 224 149 166 174 159 146 287 144 159 78 254 107 199 155 218 111 142 181 208 118 273 231 209 192 177 148 105 26 6 4 3 10 8 128 96 356 106 73 58 72 39 47 136 165 174 179 169 147 96 74 74 74 83 88 88 89 92
100 109 68 201 235 203 268 132 80 35 118 122 59 351 109 318 236 258 131 186 194 221 163 157 119 112 79 33 153 151 170 68 39 49 75 113 207 87 112 166 213 96 219 147 222 85 117 56 180 192 243 58 133 92 90 90 73 37 13 2 6 11 39 68 52 19 76 96 66 54 40 51 67 61 69 124 134 122 110 106 85 73 74 76 79 81 74
182 166 201 167 123 87 49 24 165 108 17 140 140 201 190 218 54 13 229 168 201 207 225 148 159 155 177 166 171 124 107 185 111 111 117 149 200 120 176 96 36 126 186 204 103 83 98 174 177 247 176 141 316 4 64 83 36 27 12 6 6 12 28 59 69 34 34 90 95 82 58 59 60 50 36 75 91 91 87 82 79 50 57 74 80 72 61
111 69 55 32 33 13 252 276 283 123 130 124 73 288 40 95 217 175 192 195 327 93 232 54 156 88 3 67 45 55 148 159 124 147 106 153 97 51 103 150 143 132 205 99 101 137 157 195 215 233 120 150 44 29 43 33 32 52 37 17 10 6 44 66 66 71 47 46 67 83 63 57 62 55 46 85 100 86 71 77 84 99 95 97 91 78 59
143 112 75 342 78 290 126 214 182 75 137 170 147 184 159 204 308 24 42 274 234 234 241 141 170 139 169 171 131 134 73 1 332 86 40 68 92 159 143 150 184 175 62 64 155 164 197 217 224 152 134 120 66 27 11 11 354 355 46 32 19 26 51 76 87 90 83 77 74 78 69 75 91 71 53 50 58 101 109 86 74 90 100 98 79 66 47
122 84 89 73 231 233 105 259 359 161 183 198 161 189 155 180 194 171 192 233 117 229 169 146 163 150 148 203 67 17 135 158 145 104 191 131 101 184 129 186 141 66 118 171 144 182 87 244 196 90 148 125 77 23 9 7 4 351 305 37 28 27 39 70 70 67 74 66 68 63 64 51 77 76 63 65 58 53 79 85 57 82 80 82 77 65 34
174 162 132 146 210 196 185 234 111 304 280 151 193 189 174 201 158 204 235 132 153 135 125 173 150 144 146 241 140 175 119 124 93 195 135 106 143 195 192 59 63 102 168 135 147 191 203 214 150 109 66 58 37 16 16 5 8 351 35 93 12 20 19 34 60 67 68 76 76 76 76 64 67 81 77 67 60 53 52 54 52 82 92 82 71 70 45
150 137 163 116 208 223 153 211 221 203 180 190 206 187 192 190 197 172 203 166 166 174 119 49 140 160 152 175 101 17 33 130 130 190 96 100 159 142 33 111 189 179 164 181 183 197 217 186 55 42 33 22 15 15 16 15 8 19 33 63 78 50 37 43 50 58 60 73 80 77 76 78 79 84 96 77 57 52 48 48 51 55 79 93 96 87 77
190 187 119 163 211 156 180 229 186 111 309 224 224 191 199 120 106 178 298 340 210 133 127 116 90 36 26 312 60 154 154 159 119 276 149 164 55 42 159 82 188 168 173 167 206 184 99 34 32 35 27 36 18 12 9 11 13 9 6 30 44 60 62 54 54 55 62 72 74 84 84 82 87 88 86 91 84 57 49 51 59 66 82 88 87 85 88
108 131 172 202 181 133 206 349 107 172 274 330 323 66 134 161 172 20 327 316 154 173 180 133 164 108 183 89 121 158 205 229 140 194 77 31 129 187 150 185 164 163 260 65 151 35 28 36 34 55 29 33 29 18 4 355 360 346 351 19 37 41 73 82 68 65 77 85 87 91 91 93 97 97 96 89 83 65 47 54 62 63 64 82 91 93 89
73 35 18 37 66 295 305 339 97 197 325 353 9 359 341 76 93 2 347 341 297 119 87 25 16 98 174 108 128 178 226 306 165 109 82 180 177 185 98 151 210 170 169 72 31 38 18 339 11 35 31 33 25 14 350 336 353 339 286 190 95 56 57 74 84 70 60 66 73 80 92 94 92 90 96 95 99 101 77 59 56 66 62 62 84 92 92
51 82 89 347 348 246 352 155 179 183 149 54 1 355 347 347 1 323 353 354 301 152 88 147 184 104 91 59 153 94 262 166 73 128 146 140 3 114 170 178 183 49 163 106 53 34 30 12 19 3 9 356 19 350 340 315 332 344 358 70 134 101 66 60 68 72 70 71 87 92 89 88 93 100 103 109 109 100 83 57 48 59 72 71 71 89 90
58 74 85 68 46 36 310 285 33 50 60 48 31 359 340 332 349 315 321 317 280 168 208 177 98 122 89 184 211 167 41 46 51 117 59 57 348 139 64 51 77 53 48 61 41 44 39 28 35 27 26 352 348 339 330 327 358 1 29 29 42 83 90 76 71 82 94 86 81 90 90 87 93 98 103 101 95 86 82 79 55 67 79 80 76 77 87